Location: El Corozo
(10.5833°N, 66.9667°W)
Time: 08:39:55
(UTC+00:00)

COSMOS 2251 DEB - Visible Passes

Search period start: 07 October 2024 00:00
Search period end: 17 October 2024 00:00
Orbit: 712 x 824 km, 74.0° (Epoch: 06 October)

Date Brightness Start Highest point End Pass type
(mag) Time Alt. Az. Time Alt. Az. Time Alt. Az.
07 Oct ? 07:38:04 10° NE 07:41:08 15° ENE 07:44:14 10° ESE visible
07 Oct ? 09:18:11 10° NW 09:22:59 34° WSW 09:27:54 10° SSW visible
08 Oct ? 08:44:03 40° NNW 08:45:59 70° WSW 08:51:26 10° S visible
09 Oct ? 08:09:48 51° ESE 08:09:48 51° ESE 08:14:18 10° SSE visible
10 Oct ? 07:35:04 16° SE 07:35:04 16° SE 07:36:26 10° SE visible
10 Oct ? 09:15:25 15° SW 09:15:25 15° SW 09:17:07 10° SW visible
11 Oct ? 08:40:18 15° SSW 08:40:18 15° SSW 08:41:18 10° SSW visible
